Track STARLINK-3457 now! 10-day predictions STARLINK-3457 is classified as:
1 51754U 22016AS 22224.91668981 .00039972 00000-0 25163-2 0 9992 2 51754 53.2159 46.4754 0001790 57.2956 66.9203 15.08826539 27844